Overview Statistics Trail Chart Weather Telemetry Raw packets
 

This is the latest recevied weather packets stored in our database for station/object N0HOT. If no packets are shown the sender has not sent any weather packets the latest 10 day(s).

<< 87 88 89 90 91 92 93 >>
Time Temp. Humidity Pressure Rain* Wind** Luminosity Snow
1788013040 18.33° C 88% 1016.7 hPa 0 mm - 75 W/m² -
1788012739 18.33° C 88% 1016.7 hPa 0 mm - 72 W/m² -
1788012446 18.33° C 88% 1016.7 hPa 0 mm - 23 W/m² -
1788012134 18.33° C 88% 1016.7 hPa 0 mm - 22 W/m² -
1788011834 18.33° C 88% 1017 hPa 0 mm - 27 W/m² -
1788011532 17.78° C 88% 1017.3 hPa 0 mm - 26 W/m² -
1788011228 17.78° C 88% 1017.3 hPa 0 mm - 35 W/m² -
1788010927 17.78° C 88% 1017.8 hPa 1.78 mm - 51 W/m² -
1788010622 17.78° C 88% 1017.3 hPa 1.78 mm - 54 W/m² -
1788010321 17.78° C 88% 1017.3 hPa 1.27 mm - 48 W/m² -
1788010015 17.78° C 88% 1017.3 hPa 1.27 mm - 32 W/m² -
1788009715 17.78° C 88% 1017.3 hPa 0 mm - 17 W/m² -
1788009413 17.78° C 88% 1017.8 hPa 1.78 mm - 12 W/m² -
1788009108 17.78° C 88% 1018.1 hPa 1.78 mm - 11 W/m² -
1788008804 17.78° C 88% 1018.1 hPa 1.27 mm - 8 W/m² -
1788008503 17.78° C 88% 1018.5 hPa 1.27 mm - 5 W/m² -
1788008200 17.78° C 88% 1018.1 hPa 1.78 mm - 4 W/m² -
1788007893 17.78° C 88% 1017.8 hPa 1.78 mm - 4 W/m² -
1788007593 17.78° C 88% 1017.8 hPa 1.78 mm - 3 W/m² -
1788007292 17.78° C 88% 1017.3 hPa 1.78 mm - 2 W/m² -
1788006987 17.78° C 88% 1017.3 hPa 1.27 mm - 1 W/m² -
1788006681 17.78° C 88% 1017.3 hPa 1.27 mm - 1 W/m² -
1788006376 17.78° C 88% 1017.3 hPa 0 mm - 2 W/m² -
1788006075 17.78° C 88% 1017.3 hPa 1.78 mm - 0 W/m² -
1788005774 17.78° C 88% 1017.8 hPa 1.78 mm - 0 W/m² -

* Rain latest hour (hover to see other rain measurements)
** Current wind speed in m/s (hover to see current wind gust speed)